• în Republica Moldova
  • Lista ţărilor
  • Pe 7 zile
  • Temperatura apei
  • Hartă satelitară
  • Meteo pe hartă
  • Widget-uri
  • user-avatar
    Intrare

    Meteo pe oră la Coasta de Aur

    Astăzi, 24 Februarie, Sâmbătă

    Timp Temperatura Precipitaţii Vânt Presiune Umiditate
    00:00 +25°C° 2 mm 5 m/s 756 mmHg 96%
    01:00 +25°C° 2 mm 5 m/s 756 mmHg 96%
    02:00 +23°C° 1,6 mm 5 m/s 756 mmHg 96%
    03:00 +23°C° 1,6 mm 4 m/s 756 mmHg 97%
    04:00 +23°C° 0 mm 4 m/s 755 mmHg 97%
    05:00 +25°C° 2,2 mm 4 m/s 756 mmHg 96%
    06:00 +25°C° 2,2 mm 4 m/s 756 mmHg 96%
    07:00 +25°C° 2,2 mm 4 m/s 756 mmHg 95%
    08:00 +26°C° 2,8 mm 5 m/s 756 mmHg 93%
    09:00 +26°C° 2,8 mm 5 m/s 756 mmHg 91%
    10:00 +28°C° 0 mm 2 m/s 756 mmHg 87%
    11:00 +28°C° 1,8 mm 3 m/s 755 mmHg 86%
    12:00 +28°C° 1,8 mm 3 m/s 755 mmHg 84%
    13:00 +29°C° 1,8 mm 4 m/s 754 mmHg 83%
    14:00 +29°C° 0,8 mm 4 m/s 754 mmHg 82%
    15:00 +29°C° 0,8 mm 4 m/s 754 mmHg 82%
    16:00 +28°C° 0 mm 4 m/s 754 mmHg 83%
    17:00 +27°C° 0,2 mm 4 m/s 754 mmHg 86%
    18:00 +26°C° 0,2 mm 4 m/s 754 mmHg 89%
    19:00 +26°C° 0,2 mm 4 m/s 754 mmHg 91%
    20:00 +25°C° 0,1 mm 3 m/s 754 mmHg 92%
    21:00 +25°C° 0,1 mm 3 m/s 754 mmHg 93%
    22:00 +25°C° 0 mm 3 m/s 754 mmHg 94%
    23:00 +25°C° 0,6 mm 3 m/s 754 mmHg 94%

    Mâine, 25 Februarie, Duminică

    Timp Temperatura Precipitaţii Vânt Presiune Umiditate
    00:00 +24°C° 0,6 mm 3 m/s 754 mmHg 95%
    01:00 +24°C° 0,6 mm 2 m/s 753 mmHg 95%
    02:00 +24°C° 0,2 mm 2 m/s 753 mmHg 96%
    03:00 +24°C° 0,2 mm 2 m/s 753 mmHg 96%
    04:00 +24°C° 0,2 mm 2 m/s 752 mmHg 96%
    05:00 +24°C° 0 mm 2 m/s 752 mmHg 95%
    06:00 +25°C° 0 mm 2 m/s 753 mmHg 93%
    07:00 +25°C° 0 mm 2 m/s 753 mmHg 92%
    08:00 +27°C° 0 mm 2 m/s 752 mmHg 82%
    09:00 +30°C° 0 mm 3 m/s 752 mmHg 72%
    10:00 +33°C° 0 mm 3 m/s 752 mmHg 62%
    11:00 +33°C° 0,3 mm 4 m/s 752 mmHg 65%
    12:00 +33°C° 0,3 mm 4 m/s 751 mmHg 68%
    13:00 +33°C° 0,3 mm 5 m/s 751 mmHg 71%
    14:00 +33°C° 0,7 mm 5 m/s 750 mmHg 75%
    15:00 +32°C° 0,7 mm 5 m/s 750 mmHg 79%
    16:00 +30°C° 0,7 mm 5 m/s 750 mmHg 83%
    17:00 +29°C° 0,2 mm 5 m/s 750 mmHg 85%
    18:00 +28°C° 0,2 mm 5 m/s 750 mmHg 87%
    19:00 +27°C° 0,2 mm 5 m/s 750 mmHg 89%
    20:00 +27°C° 0,3 mm 5 m/s 751 mmHg 89%
    21:00 +27°C° 0,3 mm 5 m/s 751 mmHg 89%
    22:00 +27°C° 0,3 mm 5 m/s 751 mmHg 89%
    23:00 +26°C° 0,2 mm 5 m/s 751 mmHg 89%

    Poimâine, 26 Februarie, Luni

    Timp Temperatura Precipitaţii Vânt Presiune Umiditate
    00:00 +26°C° 0,2 mm 5 m/s 751 mmHg 90%
    01:00 +26°C° 0,2 mm 5 m/s 750 mmHg 90%
    02:00 +26°C° 0 mm 4 m/s 750 mmHg 90%
    03:00 +25°C° 0 mm 4 m/s 750 mmHg 90%
    04:00 +25°C° 0 mm 4 m/s 750 mmHg 91%
    05:00 +26°C° 0 mm 4 m/s 751 mmHg 89%
    06:00 +26°C° 0 mm 4 m/s 751 mmHg 88%
    07:00 +26°C° 0 mm 4 m/s 751 mmHg 87%
    08:00 +29°C° 0 mm 4 m/s 751 mmHg 79%
    09:00 +32°C° 0 mm 4 m/s 751 mmHg 70%
    10:00 +34°C° 0 mm 4 m/s 752 mmHg 61%
    11:00 +34°C° 0,4 mm 4 m/s 751 mmHg 64%
    12:00 +35°C° 0,4 mm 4 m/s 751 mmHg 66%
    13:00 +35°C° 0,4 mm 4 m/s 751 mmHg 68%
    14:00 +33°C° 1,4 mm 4 m/s 751 mmHg 75%
    15:00 +29°C° 1,4 mm 5 m/s 751 mmHg 81%
    16:00 +27°C° 1,4 mm 5 m/s 751 mmHg 88%
    17:00 +26°C° 1,1 mm 6 m/s 752 mmHg 90%
    18:00 +24°C° 1,1 mm 7 m/s 752 mmHg 91%
    19:00 +23°C° 1,1 mm 7 m/s 753 mmHg 93%
    20:00 +23°C° 0,2 mm 7 m/s 754 mmHg 93%
    21:00 +23°C° 0,2 mm 7 m/s 754 mmHg 92%
    22:00 +23°C° 0,2 mm 7 m/s 755 mmHg 92%
    23:00 +23°C° 0,4 mm 7 m/s 755 mmHg 93%

    27 Februarie, Marţi

    Timp Temperatura Precipitaţii Vânt Presiune Umiditate
    00:00 +23°C° 0,4 mm 6 m/s 755 mmHg 93%
    01:00 +22°C° 0,4 mm 6 m/s 755 mmHg 94%
    02:00 +22°C° 0,2 mm 6 m/s 755 mmHg 94%
    03:00 +21°C° 0,2 mm 6 m/s 755 mmHg 94%
    04:00 +21°C° 0,2 mm 6 m/s 755 mmHg 94%
    05:00 +21°C° 0,3 mm 6 m/s 755 mmHg 93%
    06:00 +21°C° 0,3 mm 6 m/s 756 mmHg 92%
    07:00 +21°C° 0,3 mm 6 m/s 756 mmHg 91%
    08:00 +21°C° 0,1 mm 6 m/s 757 mmHg 89%
    09:00 +22°C° 0,1 mm 6 m/s 757 mmHg 87%
    10:00 +23°C° 0,1 mm 6 m/s 757 mmHg 85%
    11:00 +24°C° 0,1 mm 6 m/s 757 mmHg 78%
    12:00 +27°C° 0,1 mm 7 m/s 757 mmHg 72%
    13:00 +28°C° 0,1 mm 7 m/s 756 mmHg 65%
    14:00 +28°C° 0 mm 7 m/s 756 mmHg 64%
    15:00 +28°C° 0 mm 7 m/s 756 mmHg 64%
    16:00 +28°C° 0 mm 7 m/s 756 mmHg 64%
    17:00 +26°C° 0 mm 6 m/s 756 mmHg 68%
    18:00 +24°C° 0 mm 6 m/s 757 mmHg 73%
    19:00 +23°C° 0 mm 5 m/s 757 mmHg 78%
    20:00 +22°C° 0 mm 5 m/s 758 mmHg 81%
    21:00 +21°C° 0 mm 5 m/s 758 mmHg 83%
    22:00 +20°C° 0 mm 4 m/s 758 mmHg 86%
    23:00 +20°C° 0 mm 4 m/s 758 mmHg 87%

    28 Februarie, Miercuri

    Timp Temperatura Precipitaţii Vânt Presiune Umiditate
    00:00 +20°C° 0 mm 4 m/s 758 mmHg 88%
    01:00 +19°C° 0 mm 4 m/s 757 mmHg 89%
    02:00 +19°C° 0 mm 4 m/s 757 mmHg 90%
    03:00 +19°C° 0 mm 3 m/s 757 mmHg 91%
    04:00 +18°C° 0 mm 3 m/s 757 mmHg 92%
    05:00 +19°C° 0 mm 3 m/s 757 mmHg 90%
    06:00 +19°C° 0 mm 3 m/s 757 mmHg 88%
    07:00 +20°C° 0 mm 3 m/s 758 mmHg 86%
    08:00 +24°C° 0 mm 3 m/s 758 mmHg 75%
    09:00 +26°C° 0 mm 2 m/s 758 mmHg 64%
    10:00 +29°C° 0 mm 2 m/s 758 mmHg 52%
    11:00 +30°C° 0 mm 2 m/s 757 mmHg 49%
    12:00 +31°C° 0 mm 2 m/s 756 mmHg 45%
    13:00 +32°C° 0 mm 2 m/s 755 mmHg 41%
    14:00 +33°C° 0 mm 3 m/s 755 mmHg 44%
    15:00 +31°C° 0 mm 3 m/s 755 mmHg 48%
    16:00 +30°C° 0 mm 3 m/s 754 mmHg 51%
    17:00 +28°C° 0 mm 3 m/s 754 mmHg 60%
    18:00 +26°C° 0 mm 3 m/s 755 mmHg 69%
    19:00 +24°C° 0 mm 3 m/s 755 mmHg 78%
    20:00 +22°C° 0 mm 3 m/s 755 mmHg 79%
    21:00 +22°C° 0 mm 3 m/s 756 mmHg 81%
    22:00 +21°C° 0 mm 2 m/s 756 mmHg 83%
    23:00 +21°C° 0 mm 3 m/s 756 mmHg 84%

    1 Martie, Joi

    Timp Temperatura Precipitaţii Vânt Presiune Umiditate
    00:00 +21°C° 0 mm 3 m/s 756 mmHg 86%
    01:00 +20°C° 0 mm 3 m/s 755 mmHg 87%
    02:00 +20°C° 0 mm 3 m/s 755 mmHg 87%
    03:00 +20°C° 0 mm 3 m/s 755 mmHg 88%
    04:00 +20°C° 0 mm 3 m/s 755 mmHg 89%
    05:00 +21°C° 0 mm 3 m/s 755 mmHg 86%
    06:00 +22°C° 0 mm 3 m/s 755 mmHg 83%
    07:00 +22°C° 0 mm 3 m/s 755 mmHg 80%
    08:00 +27°C° 0 mm 3 m/s 755 mmHg 70%
    09:00 +30°C° 0 mm 2 m/s 755 mmHg 59%
    10:00 +34°C° 0 mm 2 m/s 755 mmHg 48%
    11:00 +36°C° 0 mm 2 m/s 755 mmHg 44%
    12:00 +37°C° 0 mm 3 m/s 754 mmHg 40%
    13:00 +38°C° 0 mm 3 m/s 754 mmHg 36%
    14:00 +37°C° 0 mm 3 m/s 754 mmHg 44%
    15:00 +35°C° 0 mm 4 m/s 754 mmHg 52%
    16:00 +33°C° 0 mm 4 m/s 753 mmHg 59%
    17:00 +30°C° 0 mm 4 m/s 754 mmHg 68%
    18:00 +29°C° 0 mm 4 m/s 755 mmHg 77%
    19:00 +27°C° 0 mm 4 m/s 755 mmHg 86%
    20:00 +26°C° 0,1 mm 4 m/s 756 mmHg 88%
    21:00 +26°C° 0,1 mm 4 m/s 756 mmHg 89%
    22:00 +26°C° 0,1 mm 4 m/s 757 mmHg 91%
    23:00 +25°C° 0,1 mm 4 m/s 757 mmHg 92%
    Arată mai mult